Melody — 3FBS7 — position and weather

sailwx.info

Track history (hours):
 
Tides and Currents Weather Stations Pressure Air Temp Water Temp Dewpoint Dewpoint Depression Visibility Wind Speed Wind Dir Waves Ship Positions

Melody

Operator: Mediterranean Shipping Company

Last reported at 2019-Nov-20 08:21 UTC. Time now 2019-Nov-20 09:46 UTC.
Position N 29°13' W 094°41'.

Length 225 m; draft 8 m.

Type: Tanker. MMSI: 371669000.

Date/timePositionNaut miles runAvg speedWind from/ knotsBaromVisibWave heightAir tempDewpointWater temp
2019-Nov-20 08:21N 29°13' W 094°41'0 0.0
2019-Nov-20 07:24N 29°13' W 094°41'0 0.0
2019-Nov-20 06:30N 29°13' W 094°41'0 0.0
2019-Nov-20 04:30N 29°13' W 094°41'0 0.0
2019-Nov-20 03:30N 29°13' W 094°41'0 0.0
2019-Nov-20 02:30N 29°13' W 094°41'0 0.0
2019-Nov-19 23:30N 29°13' W 094°41'0 0.0
2019-Nov-19 22:30N 29°13' W 094°41'0 0.0
2019-Nov-19 20:54N 29°13' W 094°41'0 0.0
2019-Nov-19 18:27N 29°13' W 094°41'0 0.0
2019-Nov-19 18:00N 29°13' W 094°41'0 0.0
2019-Nov-19 16:30N 29°13' W 094°41'0 0.0
2019-Nov-19 14:30N 29°13' W 094°41'0 0.0
2019-Nov-19 13:30N 29°13' W 094°41'0 0.0
2019-Nov-19 11:00N 29°13' W 094°41'0 0.0
2019-Nov-19 08:57N 29°13' W 094°41'0 0.0
2019-Nov-19 06:45N 29°13' W 094°41'0 0.0
2019-Nov-19 04:30N 29°13' W 094°41'0 0.0
2019-Nov-19 02:00N 29°13' W 094°41'0 0.0
2019-Nov-18 22:27N 29°13' W 094°41'0 0.0
2019-Nov-18 15:54N 29°13' W 094°41'0 0.0
2019-Nov-18 15:27N 29°13' W 094°41'0 0.0
2019-Nov-18 12:57N 29°13' W 094°41'0 0.0
2019-Nov-18 12:21N 29°13' W 094°41'0 0.0
2019-Nov-18 09:21N 29°13' W 094°41'0 0.0
2019-Nov-18 02:54N 29°13' W 094°41'0 0.0
2019-Nov-18 01:51N 29°13' W 094°41'0 0.0
2019-Nov-18 00:48N 29°13' W 094°41'0 0.1
2019-Nov-17 23:30N 29°13' W 094°41'3 6.8
2019-Nov-17 23:00N 29°15' W 094°38'8 8.2
2019-Nov-17 21:59N 29°21' W 094°45'0 0.0
2019-Nov-17 19:50N 29°21' W 094°45'0 0.0
2019-Nov-17 17:29N 29°21' W 094°45'0 0.0
2019-Nov-17 16:59N 29°21' W 094°45'49 5.1
2019-Nov-17 07:18N 28°35' W 094°25'  
Track history (hours):
 
Tides and Currents Weather Stations Pressure Air Temp Water Temp Dewpoint Dewpoint Depression Visibility Wind Speed Wind Dir Waves Ship Positions

Melody

Operator: Mediterranean Shipping Company

Last reported at 2019-Nov-20 08:21 UTC. Time now 2019-Nov-20 09:46 UTC.
Position N 29°13' W 094°41'.

Length 225 m; draft 8 m.

Type: Tanker. MMSI: 371669000.

Date/timePositionNaut miles runAvg speedWind from/ knotsBaromVisibWave heightAir tempDewpointWater temp
2019-Nov-20 08:21N 29°13' W 094°41'0 0.0
2019-Nov-20 07:24N 29°13' W 094°41'0 0.0
2019-Nov-20 06:30N 29°13' W 094°41'0 0.0
2019-Nov-20 04:30N 29°13' W 094°41'0 0.0
2019-Nov-20 03:30N 29°13' W 094°41'0 0.0
2019-Nov-20 02:30N 29°13' W 094°41'0 0.0
2019-Nov-19 23:30N 29°13' W 094°41'0 0.0
2019-Nov-19 22:30N 29°13' W 094°41'0 0.0
2019-Nov-19 20:54N 29°13' W 094°41'0 0.0
2019-Nov-19 18:27N 29°13' W 094°41'0 0.0
2019-Nov-19 18:00N 29°13' W 094°41'0 0.0
2019-Nov-19 16:30N 29°13' W 094°41'0 0.0
2019-Nov-19 14:30N 29°13' W 094°41'0 0.0
2019-Nov-19 13:30N 29°13' W 094°41'0 0.0
2019-Nov-19 11:00N 29°13' W 094°41'0 0.0
2019-Nov-19 08:57N 29°13' W 094°41'0 0.0
2019-Nov-19 06:45N 29°13' W 094°41'0 0.0
2019-Nov-19 04:30N 29°13' W 094°41'0 0.0
2019-Nov-19 02:00N 29°13' W 094°41'0 0.0
2019-Nov-18 22:27N 29°13' W 094°41'0 0.0
2019-Nov-18 15:54N 29°13' W 094°41'0 0.0
2019-Nov-18 15:27N 29°13' W 094°41'0 0.0
2019-Nov-18 12:57N 29°13' W 094°41'0 0.0
2019-Nov-18 12:21N 29°13' W 094°41'0 0.0
2019-Nov-18 09:21N 29°13' W 094°41'0 0.0
2019-Nov-18 02:54N 29°13' W 094°41'0 0.0
2019-Nov-18 01:51N 29°13' W 094°41'0 0.0
2019-Nov-18 00:48N 29°13' W 094°41'0 0.1
2019-Nov-17 23:30N 29°13' W 094°41'3 6.8
2019-Nov-17 23:00N 29°15' W 094°38'8 8.2
2019-Nov-17 21:59N 29°21' W 094°45'0 0.0
2019-Nov-17 19:50N 29°21' W 094°45'0 0.0
2019-Nov-17 17:29N 29°21' W 094°45'0 0.0
2019-Nov-17 16:59N 29°21' W 094°45'49 5.1
2019-Nov-17 07:18N 28°35' W 094°25'  

Dump ship's entire track history